Location: Auckland
(36.8500°S, 174.7800°E)
Time: 22:22:28
(UTC+12:00)

ISS - Visible Passes

Search period start: 13 May 2021 00:00
Search period end: 23 May 2021 00:00
Orbit: 417 x 422 km, 51.6° (Epoch: 13 May)

Date Brightness Start Highest point End Pass type
(mag) Time Alt. Az. Time Alt. Az. Time Alt. Az.
19 May -0.6 06:26:07 10° N 06:28:35 19° NE 06:31:05 10° E visible
20 May -0.2 05:40:40 10° NE 05:41:20 10° NE 05:42:00 10° ENE visible
21 May -3.2 06:26:54 10° NW 06:30:16 64° NE 06:33:41 10° SE visible
22 May -2.0 05:39:51 10° NNW 05:42:54 34° NE 05:46:03 10° ESE visible
